Location: ???????
(55.3754°N, 39.3545°E)
Time: 15:47:27
(UTC+00:00)

Cosmos 1725 Rocket - Pass Details

Date: 14 April 2026
Orbit: 960 x 991 km, 82.9° (Epoch: 17 May)

Event Time Altitude Azimuth Distance (km) Brightness Sun altitude
Exits shadow 21:33:52 55° 206° (SSW) 1,184 4.0 -24.9°
Maximum altitude 21:35:23 81° 282° (WNW) 1,011 4.0 -24.9°
Drops below altitude 10° 21:41:45 10° 10° (N) 2,761 7.4 -24.8°
Sets 21:44:17 0° 12° (NNE) 3,710 8.4 -24.8°
